Time,TemperatureF,DewpointF,PressureIn,WindDirection,WindDirectionDegrees,WindSpeedMPH,WindSpeedGustMPH,Humidity,HourlyPrecipIn,Conditions,Clouds,dailyrainin,SoftwareType,DateUTC
2013-01-24 00:02:00,34.0,19.0,-100.00,South,180,8.0,12.0,53,-99.99,,,-99.99,,2013-01-24 08:02:00,
2013-01-24 00:12:00,34.0,19.0,-100.00,South,180,9.0,12.0,53,-99.99,,,-99.99,,2013-01-24 08:12:00,
2013-01-24 00:22:00,34.0,19.0,-100.00,South,180,9.0,12.0,53,-99.99,,,-99.99,,2013-01-24 08:22:00,
2013-01-24 00:32:00,34.0,18.0,-100.00,SW,225,4.0,10.0,53,-99.99,,,-99.99,,2013-01-24 08:32:00,
2013-01-24 00:42:00,33.0,19.0,-100.00,South,180,8.0,12.0,54,-99.99,,,-99.99,,2013-01-24 08:42:00,
2013-01-24 00:52:00,33.0,19.0,-100.00,SW,225,3.0,12.0,54,-99.99,,,-99.99,,2013-01-24 08:52:00,
2013-01-24 01:02:00,33.0,19.0,-100.00,SW,225,3.0,12.0,54,-99.99,,,-99.99,,2013-01-24 09:02:00,
2013-01-24 01:12:00,33.0,19.0,-100.00,SW,225,6.0,11.0,56,-99.99,,,-99.99,,2013-01-24 09:12:00,
2013-01-24 01:22:00,33.0,19.0,-100.00,SW,225,6.0,11.0,56,-99.99,,,-99.99,,2013-01-24 09:22:00,
2013-01-24 01:33:00,32.0,18.0,-100.00,South,180,6.0,11.0,56,-99.99,,,-99.99,,2013-01-24 09:33:00,
2013-01-24 01:42:00,32.0,19.0,-100.00,SW,225,6.0,12.0,57,-99.99,,,-99.99,,2013-01-24 09:42:00,
2013-01-24 01:52:00,32.0,19.0,-100.00,SW,225,6.0,12.0,57,-99.99,,,-99.99,,2013-01-24 09:52:00,
2013-01-24 02:02:00,32.0,19.0,-100.00,SW,225,4.0,11.0,57,-99.99,,,-99.99,,2013-01-24 10:02:00,
2013-01-24 02:12:00,32.0,19.0,-100.00,South,180,6.0,11.0,57,-99.99,,,-99.99,,2013-01-24 10:12:00,
2013-01-24 02:22:00,32.0,19.0,-100.00,South,180,6.0,11.0,57,-99.99,,,-99.99,,2013-01-24 10:22:00,
2013-01-24 02:33:00,32.0,19.0,-100.00,SW,225,6.0,11.0,57,-99.99,,,-99.99,,2013-01-24 10:33:00,
2013-01-24 02:42:00,33.0,20.0,-100.00,West,270,4.0,11.0,58,-99.99,,,-99.99,,2013-01-24 10:42:00,
2013-01-24 02:52:00,33.0,20.0,-100.00,West,270,4.0,11.0,58,-99.99,,,-99.99,,2013-01-24 10:52:00,
2013-01-24 03:02:00,33.0,20.0,-100.00,SW,225,4.0,8.0,58,-99.99,,,-99.99,,2013-01-24 11:02:00,
2013-01-24 03:12:00,33.0,20.0,-100.00,SW,225,3.0,11.0,58,-99.99,,,-99.99,,2013-01-24 11:12:00,
2013-01-24 03:22:00,33.0,20.0,-100.00,SW,225,3.0,11.0,58,-99.99,,,-99.99,,2013-01-24 11:22:00,
2013-01-24 03:32:00,33.0,20.0,-100.00,SW,225,6.0,9.0,58,-99.99,,,-99.99,,2013-01-24 11:32:00,
2013-01-24 03:43:00,32.0,20.0,-100.00,South,180,5.0,9.0,59,-99.99,,,-99.99,,2013-01-24 11:43:00,
2013-01-24 03:52:00,32.0,20.0,-100.00,South,180,5.0,9.0,59,-99.99,,,-99.99,,2013-01-24 11:52:00,
2013-01-24 04:03:00,32.0,20.0,-100.00,South,180,4.0,9.0,59,-99.99,,,-99.99,,2013-01-24 12:03:00,
2013-01-24 04:12:00,32.0,20.0,-100.00,South,180,4.0,9.0,60,-99.99,,,-99.99,,2013-01-24 12:12:00,
2013-01-24 04:22:00,32.0,20.0,-100.00,South,180,4.0,9.0,60,-99.99,,,-99.99,,2013-01-24 12:22:00,
2013-01-24 04:33:00,32.0,20.0,-100.00,SW,225,6.0,9.0,61,-99.99,,,-99.99,,2013-01-24 12:33:00,
2013-01-24 04:42:00,32.0,20.0,-100.00,SW,225,6.0,9.0,62,-99.99,,,-99.99,,2013-01-24 12:42:00,
2013-01-24 04:52:00,32.0,20.0,-100.00,SW,225,6.0,9.0,62,-99.99,,,-99.99,,2013-01-24 12:52:00,
2013-01-24 05:02:00,31.0,0.0,-100.00,SW,225,4.0,8.0,26,-99.99,,,-99.99,,2013-01-24 13:02:00,
2013-01-24 05:12:00,31.0,21.0,-100.00,South,180,5.0,8.0,66,-99.99,,,-99.99,,2013-01-24 13:12:00,
2013-01-24 05:22:00,31.0,21.0,-100.00,South,180,5.0,8.0,66,-99.99,,,-99.99,,2013-01-24 13:22:00,
2013-01-24 05:32:00,31.0,21.0,-100.00,South,180,3.0,9.0,68,-99.99,,,-99.99,,2013-01-24 13:32:00,
2013-01-24 05:42:00,31.0,22.0,-100.00,SW,225,6.0,7.0,70,-99.99,,,-99.99,,2013-01-24 13:42:00,
2013-01-24 05:53:00,31.0,22.0,-100.00,SW,225,6.0,7.0,70,-99.99,,,-99.99,,2013-01-24 13:53:00,
2013-01-24 06:02:00,31.0,21.0,-100.00,SW,225,4.0,7.0,67,-99.99,,,-99.99,,2013-01-24 14:02:00,
2013-01-24 06:12:00,31.0,11.0,-100.00,South,180,4.0,9.0,44,-99.99,,,-99.99,,2013-01-24 14:12:00,
2013-01-24 06:22:00,31.0,11.0,-100.00,South,180,4.0,9.0,44,-99.99,,,-99.99,,2013-01-24 14:22:00,
2013-01-24 06:33:00,30.0,21.0,-100.00,SW,225,4.0,9.0,68,-99.99,,,-99.99,,2013-01-24 14:33:00,
2013-01-24 06:43:00,30.0,14.0,-100.00,SW,225,4.0,8.0,49,-99.99,,,-99.99,,2013-01-24 14:43:00,
2013-01-24 07:03:00,31.0,23.0,-100.00,South,180,4.0,6.0,72,-99.99,,,-99.99,,2013-01-24 15:03:00,
2013-01-24 07:12:00,31.0,23.0,-100.00,SW,225,4.0,8.0,73,-99.99,,,-99.99,,2013-01-24 15:12:00,
2013-01-24 07:22:00,31.0,23.0,-100.00,SW,225,4.0,8.0,73,-99.99,,,-99.99,,2013-01-24 15:22:00,
2013-01-24 07:33:00,30.0,20.0,-100.00,South,180,3.0,8.0,66,-99.99,,,-99.99,,2013-01-24 15:33:00,
2013-01-24 07:43:00,30.0,24.0,-100.00,SW,225,6.0,10.0,76,-99.99,,,-99.99,,2013-01-24 15:43:00,
2013-01-24 07:52:00,30.0,24.0,-100.00,SW,225,6.0,10.0,76,-99.99,,,-99.99,,2013-01-24 15:52:00,
2013-01-24 08:03:00,30.0,24.0,-100.00,SW,225,6.0,9.0,76,-99.99,,,-99.99,,2013-01-24 16:03:00,
2013-01-24 08:12:00,30.0,20.0,-100.00,West,270,5.0,12.0,66,-99.99,,,-99.99,,2013-01-24 16:12:00,
2013-01-24 08:22:00,30.0,20.0,-100.00,West,270,5.0,12.0,66,-99.99,,,-99.99,,2013-01-24 16:22:00,
2013-01-24 08:33:00,31.0,22.0,-100.00,West,270,4.0,10.0,70,-99.99,,,-99.99,,2013-01-24 16:33:00,
2013-01-24 08:42:00,31.0,22.0,-100.00,West,270,4.0,10.0,70,-99.99,,,-99.99,,2013-01-24 16:42:00,
2013-01-24 09:02:00,30.0,20.0,-100.00,South,180,8.0,12.0,66,-99.99,,,-99.99,,2013-01-24 17:02:00,
2013-01-24 09:11:00,30.0,23.0,-100.00,South,180,6.0,14.0,75,-99.99,,,-99.99,,2013-01-24 17:11:00,
2013-01-24 09:21:00,30.0,23.0,-100.00,South,180,6.0,14.0,75,-99.99,,,-99.99,,2013-01-24 17:21:00,
2013-01-24 09:32:00,30.0,1.0,-100.00,SW,225,4.0,12.0,29,-99.99,,,-99.99,,2013-01-24 17:32:00,
2013-01-24 09:42:00,30.0,20.0,-100.00,South,180,7.0,12.0,67,-99.99,,,-99.99,,2013-01-24 17:42:00,
2013-01-24 09:52:00,30.0,20.0,-100.00,South,180,7.0,12.0,67,-99.99,,,-99.99,,2013-01-24 17:52:00,
2013-01-24 10:02:00,30.0,23.0,-100.00,SW,225,4.0,12.0,75,-99.99,,,-99.99,,2013-01-24 18:02:00,
2013-01-24 10:12:00,32.0,24.0,-100.00,West,270,6.0,15.0,72,-99.99,,,-99.99,,2013-01-24 18:12:00,
2013-01-24 10:22:00,32.0,24.0,-100.00,West,270,6.0,15.0,72,-99.99,,,-99.99,,2013-01-24 18:22:00,
2013-01-24 10:32:00,32.0,6.0,-100.00,West,270,6.0,13.0,33,-99.99,,,-99.99,,2013-01-24 18:32:00,
2013-01-24 10:42:00,33.0,24.0,-100.00,SW,225,8.0,15.0,69,-99.99,,,-99.99,,2013-01-24 18:42:00,
2013-01-24 10:53:00,33.0,24.0,-100.00,SW,225,8.0,15.0,69,-99.99,,,-99.99,,2013-01-24 18:53:00,
2013-01-24 11:01:00,34.0,21.0,-100.00,SW,225,7.0,13.0,59,-99.99,,,-99.99,,2013-01-24 19:01:00,
2013-01-24 11:12:00,35.0,24.0,-100.00,South,180,6.0,12.0,65,-99.99,,,-99.99,,2013-01-24 19:12:00,
2013-01-24 11:21:00,35.0,24.0,-100.00,South,180,6.0,12.0,65,-99.99,,,-99.99,,2013-01-24 19:21:00,
2013-01-24 11:32:00,36.0,23.0,-100.00,West,270,4.0,12.0,60,-99.99,,,-99.99,,2013-01-24 19:32:00,
2013-01-24 11:42:00,36.0,25.0,-100.00,SW,225,8.0,16.0,64,-99.99,,,-99.99,,2013-01-24 19:42:00,
2013-01-24 11:51:00,36.0,25.0,-100.00,SW,225,8.0,16.0,64,-99.99,,,-99.99,,2013-01-24 19:51:00,
2013-01-24 12:02:00,36.0,25.0,-100.00,SW,225,8.0,16.0,64,-99.99,,,-99.99,,2013-01-24 20:02:00,
2013-01-24 12:11:00,36.0,25.0,-100.00,SW,225,8.0,14.0,65,-99.99,,,-99.99,,2013-01-24 20:11:00,
2013-01-24 12:22:00,36.0,25.0,-100.00,SW,225,8.0,14.0,65,-99.99,,,-99.99,,2013-01-24 20:22:00,
2013-01-24 12:32:00,35.0,25.0,-100.00,South,180,6.0,16.0,67,-99.99,,,-99.99,,2013-01-24 20:32:00,
2013-01-24 12:42:00,35.0,26.0,-100.00,SW,225,7.0,12.0,68,-99.99,,,-99.99,,2013-01-24 20:42:00,
2013-01-24 12:52:00,35.0,26.0,-100.00,SW,225,7.0,12.0,68,-99.99,,,-99.99,,2013-01-24 20:52:00,
2013-01-24 13:02:00,35.0,26.0,-100.00,South,180,6.0,12.0,70,-99.99,,,-99.99,,2013-01-24 21:02:00,
2013-01-24 13:12:00,35.0,23.0,-100.00,South,180,9.0,15.0,61,-99.99,,,-99.99,,2013-01-24 21:12:00,
2013-01-24 13:22:00,35.0,23.0,-100.00,South,180,9.0,15.0,61,-99.99,,,-99.99,,2013-01-24 21:22:00,
2013-01-24 13:32:00,34.0,17.0,-100.00,South,180,11.0,16.0,49,-99.99,,,-99.99,,2013-01-24 21:32:00,
2013-01-24 13:42:00,35.0,27.0,-100.00,South,180,12.0,16.0,72,-99.99,,,-99.99,,2013-01-24 21:42:00,
2013-01-24 13:52:00,35.0,27.0,-100.00,South,180,12.0,16.0,72,-99.99,,,-99.99,,2013-01-24 21:52:00,
2013-01-24 14:02:00,35.0,27.0,-100.00,South,180,10.0,14.0,73,-99.99,,,-99.99,,2013-01-24 22:02:00,
2013-01-24 14:12:00,35.0,27.0,-100.00,SW,225,8.0,15.0,73,-99.99,,,-99.99,,2013-01-24 22:12:00,
2013-01-24 14:22:00,35.0,27.0,-100.00,SW,225,8.0,15.0,73,-99.99,,,-99.99,,2013-01-24 22:22:00,
2013-01-24 14:32:00,36.0,28.0,-100.00,South,180,4.0,11.0,73,-99.99,,,-99.99,,2013-01-24 22:32:00,
2013-01-24 14:42:00,37.0,24.0,-100.00,South,180,7.0,13.0,59,-99.99,,,-99.99,,2013-01-24 22:42:00,
2013-01-24 14:52:00,37.0,24.0,-100.00,South,180,7.0,13.0,59,-99.99,,,-99.99,,2013-01-24 22:52:00,
2013-01-24 15:02:00,37.0,27.0,-100.00,SW,225,4.0,16.0,66,-99.99,,,-99.99,,2013-01-24 23:02:00,
2013-01-24 15:11:00,37.0,24.0,-100.00,South,180,7.0,13.0,60,-99.99,,,-99.99,,2013-01-24 23:11:00,
2013-01-24 15:21:00,37.0,24.0,-100.00,South,180,7.0,13.0,60,-99.99,,,-99.99,,2013-01-24 23:21:00,
2013-01-24 15:32:00,37.0,17.0,-100.00,SW,225,4.0,12.0,44,-99.99,,,-99.99,,2013-01-24 23:32:00,
2013-01-24 15:42:00,37.0,29.0,-100.00,SW,225,4.0,12.0,74,-99.99,,,-99.99,,2013-01-24 23:42:00,
2013-01-24 15:52:00,37.0,29.0,-100.00,SW,225,4.0,12.0,74,-99.99,,,-99.99,,2013-01-24 23:52:00,
2013-01-24 16:02:00,37.0,30.0,-100.00,South,180,8.0,12.0,75,-99.99,,,-99.99,,2013-01-25 00:02:00,
2013-01-24 16:12:00,37.0,28.0,-100.00,South,180,6.0,11.0,70,-99.99,,,-99.99,,2013-01-25 00:12:00,
2013-01-24 16:22:00,37.0,21.0,-100.00,South,180,8.0,12.0,51,-99.99,,,-99.99,,2013-01-25 00:22:00,
2013-01-24 16:32:00,37.0,21.0,-100.00,South,180,8.0,12.0,51,-99.99,,,-99.99,,2013-01-25 00:32:00,
2013-01-24 16:41:00,37.0,26.0,-100.00,South,180,9.0,11.0,64,-99.99,,,-99.99,,2013-01-25 00:41:00,
2013-01-24 16:51:00,37.0,26.0,-100.00,South,180,9.0,11.0,64,-99.99,,,-99.99,,2013-01-25 00:51:00,
2013-01-24 17:01:00,37.0,30.0,-100.00,South,180,7.0,11.0,76,-99.99,,,-99.99,,2013-01-25 01:01:00,
2013-01-24 17:12:00,37.0,30.0,-100.00,South,180,6.0,11.0,77,-99.99,,,-99.99,,2013-01-25 01:12:00,
2013-01-24 17:21:00,37.0,30.0,-100.00,South,180,6.0,11.0,77,-99.99,,,-99.99,,2013-01-25 01:21:00,
2013-01-24 17:31:00,37.0,30.0,-100.00,SW,225,7.0,10.0,77,-99.99,,,-99.99,,2013-01-25 01:31:00,
2013-01-24 17:42:00,36.0,30.0,-100.00,SW,225,4.0,9.0,78,-99.99,,,-99.99,,2013-01-25 01:42:00,
2013-01-24 17:52:00,36.0,30.0,-100.00,SW,225,4.0,9.0,78,-99.99,,,-99.99,,2013-01-25 01:52:00,
2013-01-24 18:02:00,36.0,20.0,-100.00,SW,225,4.0,13.0,51,-99.99,,,-99.99,,2013-01-25 02:02:00,
2013-01-24 18:11:00,35.0,22.0,-100.00,SW,225,4.0,9.0,58,-99.99,,,-99.99,,2013-01-25 02:11:00,
2013-01-24 18:22:00,35.0,22.0,-100.00,SW,225,4.0,9.0,58,-99.99,,,-99.99,,2013-01-25 02:22:00,
2013-01-24 18:32:00,35.0,16.0,-100.00,South,180,9.0,14.0,46,-99.99,,,-99.99,,2013-01-25 02:32:00,
2013-01-24 18:42:00,35.0,30.0,-100.00,South,180,8.0,16.0,80,-99.99,,,-99.99,,2013-01-25 02:42:00,
2013-01-24 18:52:00,35.0,30.0,-100.00,South,180,8.0,16.0,80,-99.99,,,-99.99,,2013-01-25 02:52:00,
2013-01-24 19:02:00,35.0,9.0,-100.00,South,180,10.0,13.0,34,-99.99,,,-99.99,,2013-01-25 03:02:00,
2013-01-24 19:12:00,36.0,30.0,-100.00,South,180,9.0,12.0,81,-99.99,,,-99.99,,2013-01-25 03:12:00,
2013-01-24 19:22:00,36.0,30.0,-100.00,South,180,9.0,12.0,81,-99.99,,,-99.99,,2013-01-25 03:22:00,
2013-01-24 19:32:00,36.0,26.0,-100.00,South,180,9.0,13.0,66,-99.99,,,-99.99,,2013-01-25 03:32:00,
2013-01-24 19:41:00,35.0,30.0,-100.00,South,180,9.0,12.0,80,-99.99,,,-99.99,,2013-01-25 03:41:00,
2013-01-24 19:52:00,35.0,30.0,-100.00,South,180,9.0,12.0,80,-99.99,,,-99.99,,2013-01-25 03:52:00,
2013-01-24 20:02:00,36.0,31.0,-100.00,South,180,9.0,12.0,81,-99.99,,,-99.99,,2013-01-25 04:02:00,
2013-01-24 20:12:00,37.0,31.0,-100.00,South,180,12.0,16.0,80,-99.99,,,-99.99,,2013-01-25 04:12:00,
2013-01-24 20:22:00,37.0,31.0,-100.00,South,180,12.0,16.0,80,-99.99,,,-99.99,,2013-01-25 04:22:00,
2013-01-24 20:31:00,37.0,32.0,-100.00,South,180,11.0,16.0,80,-99.99,,,-99.99,,2013-01-25 04:31:00,
2013-01-24 20:41:00,37.0,32.0,-100.00,South,180,11.0,16.0,81,-99.99,,,-99.99,,2013-01-25 04:41:00,
2013-01-24 20:51:00,37.0,32.0,-100.00,South,180,11.0,16.0,81,-99.99,,,-99.99,,2013-01-25 04:51:00,
2013-01-24 21:03:00,38.0,21.0,-100.00,South,180,11.0,14.0,50,-99.99,,,-99.99,,2013-01-25 05:03:00,
2013-01-24 21:12:00,38.0,30.0,-100.00,South,180,12.0,17.0,72,-99.99,,,-99.99,,2013-01-25 05:12:00,
2013-01-24 21:22:00,38.0,30.0,-100.00,South,180,12.0,17.0,72,-99.99,,,-99.99,,2013-01-25 05:22:00,
2013-01-24 21:32:00,38.0,24.0,-100.00,South,180,10.0,15.0,56,-99.99,,,-99.99,,2013-01-25 05:32:00,
2013-01-24 21:43:00,38.0,33.0,-100.00,South,180,12.0,17.0,80,-99.99,,,-99.99,,2013-01-25 05:43:00,
2013-01-24 21:52:00,38.0,33.0,-100.00,South,180,12.0,17.0,80,-99.99,,,-99.99,,2013-01-25 05:52:00,
2013-01-24 22:02:00,38.0,32.0,-100.00,South,180,11.0,13.0,80,-99.99,,,-99.99,,2013-01-25 06:02:00,
2013-01-24 22:11:00,38.0,32.0,-100.00,SW,225,11.0,16.0,80,-99.99,,,-99.99,,2013-01-25 06:11:00,
2013-01-24 22:21:00,38.0,32.0,-100.00,SW,225,11.0,16.0,80,-99.99,,,-99.99,,2013-01-25 06:21:00,
2013-01-24 22:31:00,38.0,32.0,-100.00,South,180,11.0,15.0,78,-99.99,,,-99.99,,2013-01-25 06:31:00,
2013-01-24 22:41:00,38.0,33.0,-100.00,South,180,12.0,17.0,80,-99.99,,,-99.99,,2013-01-25 06:41:00,
2013-01-24 22:51:00,38.0,33.0,-100.00,South,180,12.0,17.0,80,-99.99,,,-99.99,,2013-01-25 06:51:00,
2013-01-24 23:01:00,38.0,33.0,-100.00,South,180,11.0,16.0,81,-99.99,,,-99.99,,2013-01-25 07:01:00,
2013-01-24 23:11:00,38.0,33.0,-100.00,South,180,9.0,14.0,81,-99.99,,,-99.99,,2013-01-25 07:11:00,
2013-01-24 23:21:00,38.0,33.0,-100.00,South,180,9.0,14.0,81,-99.99,,,-99.99,,2013-01-25 07:21:00,
2013-01-24 23:31:00,38.0,10.0,-100.00,South,180,11.0,12.0,30,-99.99,,,-99.99,,2013-01-25 07:31:00,
2013-01-24 23:42:00,38.0,25.0,-100.00,South,180,9.0,13.0,58,-99.99,,,-99.99,,2013-01-25 07:42:00,
2013-01-24 23:52:00,38.0,25.0,-100.00,South,180,9.0,13.0,58,-99.99,,,-99.99,,2013-01-25 07:52:00,